Year,Month,Day,Hour,Minute,Value (Times are PST for temperature in C)
2012,07,08,00,00,15.00
2012,07,08,00,01,15.00
2012,07,08,00,02,15.00
2012,07,08,00,03,15.00
2012,07,08,00,04,14.90
2012,07,08,00,05,14.90
2012,07,08,00,06,14.90
2012,07,08,00,07,14.90
2012,07,08,00,08,14.90
2012,07,08,00,09,14.90
2012,07,08,00,10,14.80
2012,07,08,00,11,14.80
2012,07,08,00,12,14.80
2012,07,08,00,13,14.80
2012,07,08,00,14,14.80
2012,07,08,00,15,14.80
2012,07,08,00,16,14.80
2012,07,08,00,17,14.80
2012,07,08,00,18,14.80
2012,07,08,00,19,14.80
2012,07,08,00,20,14.80
2012,07,08,00,21,14.80
2012,07,08,00,22,14.80
2012,07,08,00,23,14.80
2012,07,08,00,24,14.80
2012,07,08,00,25,14.80
2012,07,08,00,26,14.80
2012,07,08,00,27,14.80
2012,07,08,00,28,14.80
2012,07,08,00,29,14.80
2012,07,08,00,30,14.80
2012,07,08,00,31,14.70
2012,07,08,00,32,14.70
2012,07,08,00,33,14.70
2012,07,08,00,34,14.70
2012,07,08,00,35,14.70
2012,07,08,00,36,14.70
2012,07,08,00,37,14.80
2012,07,08,00,38,14.80
2012,07,08,00,39,14.80
2012,07,08,00,40,14.80
2012,07,08,00,41,14.70
2012,07,08,00,42,14.70
2012,07,08,00,43,14.70
2012,07,08,00,44,14.70
2012,07,08,00,45,14.70
2012,07,08,00,46,14.70
2012,07,08,00,47,14.60
2012,07,08,00,48,14.60
2012,07,08,00,49,14.60
2012,07,08,00,50,14.60
2012,07,08,00,51,14.60
2012,07,08,00,52,14.60
2012,07,08,00,53,14.50
2012,07,08,00,54,14.50
2012,07,08,00,55,14.40
2012,07,08,00,56,14.40
2012,07,08,00,57,14.40
2012,07,08,00,58,14.30
2012,07,08,00,59,14.30
2012,07,08,01,00,14.30
2012,07,08,01,01,14.20
2012,07,08,01,02,14.20
2012,07,08,01,03,14.20
2012,07,08,01,04,14.10
2012,07,08,01,05,14.10
2012,07,08,01,06,14.10
2012,07,08,01,07,14.10
2012,07,08,01,08,14.00
2012,07,08,01,09,14.00
2012,07,08,01,10,14.00
2012,07,08,01,11,14.00
2012,07,08,01,12,13.90
2012,07,08,01,13,13.90
2012,07,08,01,14,13.90
2012,07,08,01,15,13.90
2012,07,08,01,16,13.90
2012,07,08,01,17,13.90
2012,07,08,01,18,13.90
2012,07,08,01,19,13.90
2012,07,08,01,20,13.80
2012,07,08,01,21,13.80
2012,07,08,01,22,13.80
2012,07,08,01,23,13.80
2012,07,08,01,24,13.80
2012,07,08,01,25,13.80
2012,07,08,01,26,13.80
2012,07,08,01,27,13.80
2012,07,08,01,28,13.80
2012,07,08,01,29,13.80
2012,07,08,01,30,13.80
2012,07,08,01,31,13.70
2012,07,08,01,32,13.70
2012,07,08,01,33,13.70
2012,07,08,01,34,13.70
2012,07,08,01,35,13.70
2012,07,08,01,36,13.60
2012,07,08,01,37,13.60
2012,07,08,01,38,13.60
2012,07,08,01,39,13.60
2012,07,08,01,40,13.60
2012,07,08,01,41,13.50
2012,07,08,01,42,13.50
2012,07,08,01,43,13.50
2012,07,08,01,44,13.50
2012,07,08,01,45,13.50
2012,07,08,01,46,13.40
2012,07,08,01,47,13.50
2012,07,08,01,48,13.50
2012,07,08,01,49,13.40
2012,07,08,01,50,13.40
2012,07,08,01,51,13.40
2012,07,08,01,52,13.30
2012,07,08,01,53,13.30
2012,07,08,01,54,13.30
2012,07,08,01,55,13.30
2012,07,08,01,56,13.20
2012,07,08,01,57,13.20
2012,07,08,01,58,13.20
2012,07,08,01,59,13.20
2012,07,08,02,00,13.20
2012,07,08,02,01,13.20
2012,07,08,02,02,13.20
2012,07,08,02,03,13.20
2012,07,08,02,04,13.10
2012,07,08,02,05,13.10
2012,07,08,02,06,13.10
2012,07,08,02,07,13.10
2012,07,08,02,08,13.10
2012,07,08,02,09,13.10
2012,07,08,02,10,13.10
2012,07,08,02,11,13.10
2012,07,08,02,12,13.00
2012,07,08,02,13,12.90
2012,07,08,02,14,12.90
2012,07,08,02,15,12.80
2012,07,08,02,16,12.60
2012,07,08,02,17,12.50
2012,07,08,02,18,12.30
2012,07,08,02,19,12.20
2012,07,08,02,20,12.10
2012,07,08,02,21,12.00
2012,07,08,02,22,11.80
2012,07,08,02,23,11.70
2012,07,08,02,24,11.70
2012,07,08,02,25,11.60
2012,07,08,02,26,11.50
2012,07,08,02,27,11.40
2012,07,08,02,28,11.30
2012,07,08,02,29,11.20
2012,07,08,02,30,11.10
2012,07,08,02,31,11.00
2012,07,08,02,32,10.90
2012,07,08,02,33,10.80
2012,07,08,02,34,10.80
2012,07,08,02,35,10.70
2012,07,08,02,36,10.70
2012,07,08,02,37,10.60
2012,07,08,02,38,10.50
2012,07,08,02,39,10.50
2012,07,08,02,40,10.40
2012,07,08,02,41,10.40
2012,07,08,02,42,10.30
2012,07,08,02,43,10.30
2012,07,08,02,44,10.20
2012,07,08,02,45,10.20
2012,07,08,02,46,10.20
2012,07,08,02,47,10.10
2012,07,08,02,48,10.10
2012,07,08,02,49,10.10
2012,07,08,02,50,10.10
2012,07,08,02,51,10.00
2012,07,08,02,52,10.00
2012,07,08,02,53,10.00
2012,07,08,02,54,10.00
2012,07,08,02,55,10.00
2012,07,08,02,56,9.90
2012,07,08,02,57,9.90
2012,07,08,02,58,9.90
2012,07,08,02,59,9.90
2012,07,08,03,00,9.80
2012,07,08,03,01,9.80
2012,07,08,03,02,9.80
2012,07,08,03,03,9.80
2012,07,08,03,04,9.70
2012,07,08,03,05,9.70
2012,07,08,03,06,9.70
2012,07,08,03,07,9.70
2012,07,08,03,08,9.70
2012,07,08,03,09,9.60
2012,07,08,03,10,9.60
2012,07,08,03,11,9.60
2012,07,08,03,12,9.60
2012,07,08,03,13,9.50
2012,07,08,03,14,9.50
2012,07,08,03,15,9.50
2012,07,08,03,16,9.40
2012,07,08,03,17,9.40
2012,07,08,03,18,9.40
2012,07,08,03,19,9.40
2012,07,08,03,20,9.40
2012,07,08,03,21,9.30
2012,07,08,03,22,9.30
2012,07,08,03,23,9.30
2012,07,08,03,24,9.30
2012,07,08,03,25,9.30
2012,07,08,03,26,9.30
2012,07,08,03,27,9.30
2012,07,08,03,28,9.30
2012,07,08,03,29,9.30
2012,07,08,03,30,9.30
2012,07,08,03,31,9.20
2012,07,08,03,32,9.20
2012,07,08,03,33,9.20
2012,07,08,03,34,9.20
2012,07,08,03,35,9.20
2012,07,08,03,36,9.20
2012,07,08,03,37,9.20
2012,07,08,03,38,9.20
2012,07,08,03,39,9.20
2012,07,08,03,40,9.20
2012,07,08,03,41,9.20
2012,07,08,03,42,9.20
2012,07,08,03,43,9.20
2012,07,08,03,44,9.20
2012,07,08,03,45,9.10
2012,07,08,03,46,9.10
2012,07,08,03,47,9.10
2012,07,08,03,48,9.10
2012,07,08,03,49,9.10
2012,07,08,03,50,9.10
2012,07,08,03,51,9.10
2012,07,08,03,52,9.00
2012,07,08,03,53,9.00
2012,07,08,03,54,9.00
2012,07,08,03,55,9.00
2012,07,08,03,56,8.90
2012,07,08,03,57,8.90
2012,07,08,03,58,8.90
2012,07,08,03,59,8.90
2012,07,08,04,00,8.90
2012,07,08,04,01,8.90
2012,07,08,04,02,8.90
2012,07,08,04,03,8.90
2012,07,08,04,04,8.90
2012,07,08,04,05,8.80
2012,07,08,04,06,8.80
2012,07,08,04,07,8.80
2012,07,08,04,08,8.80
2012,07,08,04,09,8.80
2012,07,08,04,10,8.80
2012,07,08,04,11,8.70
2012,07,08,04,12,8.70
2012,07,08,04,13,8.70
2012,07,08,04,14,8.70
2012,07,08,04,15,8.70
2012,07,08,04,16,8.60
2012,07,08,04,17,8.60
2012,07,08,04,18,8.60
2012,07,08,04,19,8.60
2012,07,08,04,20,8.60
2012,07,08,04,21,8.60
2012,07,08,04,22,8.60
2012,07,08,04,23,8.50
2012,07,08,04,24,8.50
2012,07,08,04,25,8.50
2012,07,08,04,26,8.50
2012,07,08,04,27,8.50
2012,07,08,04,28,8.40
2012,07,08,04,29,8.40
2012,07,08,04,30,8.40
2012,07,08,04,31,8.40
2012,07,08,04,32,8.40
2012,07,08,04,33,8.40
2012,07,08,04,34,8.40
2012,07,08,04,35,8.40
2012,07,08,04,36,8.40
2012,07,08,04,37,8.40
2012,07,08,04,38,8.40
2012,07,08,04,39,8.40
2012,07,08,04,40,8.40
2012,07,08,04,41,8.40
2012,07,08,04,42,8.30
2012,07,08,04,43,8.30
2012,07,08,04,44,8.30
2012,07,08,04,45,8.30
2012,07,08,04,46,8.30
2012,07,08,04,47,8.30
2012,07,08,04,48,8.30
2012,07,08,04,49,8.30
2012,07,08,04,50,8.30
2012,07,08,04,51,8.30
2012,07,08,04,52,8.30
2012,07,08,04,53,8.30
2012,07,08,04,54,8.30
2012,07,08,04,55,8.30
2012,07,08,04,56,8.20
2012,07,08,04,57,8.20
2012,07,08,04,58,8.20
2012,07,08,04,59,8.20
2012,07,08,05,00,8.20
2012,07,08,05,01,8.20
2012,07,08,05,02,8.20
2012,07,08,05,03,8.20
2012,07,08,05,04,8.20
2012,07,08,05,05,8.20
2012,07,08,05,06,8.20
2012,07,08,05,07,8.20
2012,07,08,05,08,8.10
2012,07,08,05,09,8.10
2012,07,08,05,10,8.10
2012,07,08,05,11,8.10
2012,07,08,05,12,8.10
2012,07,08,05,13,8.10
2012,07,08,05,14,8.10
2012,07,08,05,15,8.10
2012,07,08,05,16,8.10
2012,07,08,05,17,8.10
2012,07,08,05,18,8.10
2012,07,08,05,19,8.00
2012,07,08,05,20,8.00
2012,07,08,05,21,8.00
2012,07,08,05,22,8.00
2012,07,08,05,23,8.00
2012,07,08,05,24,8.10
2012,07,08,05,25,8.20
2012,07,08,05,26,8.20
2012,07,08,05,27,8.20
2012,07,08,05,28,8.30
2012,07,08,05,29,8.30
2012,07,08,05,30,8.30
2012,07,08,05,31,8.30
2012,07,08,05,32,8.30
2012,07,08,05,33,8.30
2012,07,08,05,34,8.30
2012,07,08,05,35,8.30
2012,07,08,05,36,8.30
2012,07,08,05,37,8.30
2012,07,08,05,38,8.30
2012,07,08,05,39,8.20
2012,07,08,05,40,8.20
2012,07,08,05,41,8.20
2012,07,08,05,42,8.20
2012,07,08,05,43,8.20
2012,07,08,05,44,8.20
2012,07,08,05,45,8.10
2012,07,08,05,46,8.10
2012,07,08,05,47,8.10
2012,07,08,05,48,8.10
2012,07,08,05,49,8.10
2012,07,08,05,50,8.10
2012,07,08,05,51,8.10
2012,07,08,05,52,8.10
2012,07,08,05,53,8.10
2012,07,08,05,54,8.10
2012,07,08,05,55,8.10
2012,07,08,05,56,8.00
2012,07,08,05,57,8.00
2012,07,08,05,58,8.00
2012,07,08,05,59,7.90
2012,07,08,06,00,7.90
2012,07,08,06,01,7.90
2012,07,08,06,02,7.90
2012,07,08,06,03,7.90
2012,07,08,06,04,7.80
2012,07,08,06,05,7.80
2012,07,08,06,06,7.80
2012,07,08,06,07,7.80
2012,07,08,06,08,7.80
2012,07,08,06,09,7.80
2012,07,08,06,10,7.80
2012,07,08,06,11,7.80
2012,07,08,06,12,7.70
2012,07,08,06,13,7.70
2012,07,08,06,14,7.70
2012,07,08,06,15,7.70
2012,07,08,06,16,7.70
2012,07,08,06,17,7.70
2012,07,08,06,18,7.70
2012,07,08,06,19,7.70
2012,07,08,06,20,7.70
2012,07,08,06,21,7.60
2012,07,08,06,22,7.60
2012,07,08,06,23,7.60
2012,07,08,06,24,7.60
2012,07,08,06,25,7.60
2012,07,08,06,26,7.60
2012,07,08,06,27,7.60
2012,07,08,06,28,7.60
2012,07,08,06,29,7.60
2012,07,08,06,30,7.60
2012,07,08,06,31,7.60
2012,07,08,06,32,7.60
2012,07,08,06,33,7.60
2012,07,08,06,34,7.60
2012,07,08,06,35,7.60
2012,07,08,06,36,7.50
2012,07,08,06,37,7.50
2012,07,08,06,38,7.50
2012,07,08,06,39,7.50
2012,07,08,06,40,7.50
2012,07,08,06,41,7.50
2012,07,08,06,42,7.50
2012,07,08,06,43,7.50
2012,07,08,06,44,7.50
2012,07,08,06,45,7.50
2012,07,08,06,46,7.50
2012,07,08,06,47,7.40
2012,07,08,06,48,7.40
2012,07,08,06,49,7.40
2012,07,08,06,50,7.40
2012,07,08,06,51,7.40
2012,07,08,06,52,7.40
2012,07,08,06,53,7.40
2012,07,08,06,54,7.40
2012,07,08,06,55,7.40
2012,07,08,06,56,7.40
2012,07,08,06,57,7.40
2012,07,08,06,58,7.40
2012,07,08,06,59,7.40
2012,07,08,07,00,7.40
2012,07,08,07,01,7.40
2012,07,08,07,02,7.40
2012,07,08,07,03,7.40
2012,07,08,07,04,7.40
2012,07,08,07,05,7.40
2012,07,08,07,06,7.40
2012,07,08,07,07,7.40
2012,07,08,07,08,7.40
2012,07,08,07,09,7.40
2012,07,08,07,10,7.40
2012,07,08,07,11,7.40
2012,07,08,07,12,7.40
2012,07,08,07,13,7.40
2012,07,08,07,14,7.40
2012,07,08,07,15,7.40
2012,07,08,07,16,7.40
2012,07,08,07,17,7.40
2012,07,08,07,18,7.40
2012,07,08,07,19,7.40
2012,07,08,07,20,7.40
2012,07,08,07,21,7.40
2012,07,08,07,22,7.40
2012,07,08,07,23,7.40
2012,07,08,07,24,7.40
2012,07,08,07,25,7.40
2012,07,08,07,26,7.40
2012,07,08,07,27,7.40
2012,07,08,07,28,7.30
2012,07,08,07,29,7.30
2012,07,08,07,30,7.30
2012,07,08,07,31,7.30
2012,07,08,07,32,7.30
2012,07,08,07,33,7.30
2012,07,08,07,34,7.30
2012,07,08,07,35,7.30
2012,07,08,07,36,7.30
2012,07,08,07,37,7.40
2012,07,08,07,38,7.40
2012,07,08,07,39,7.40
2012,07,08,07,40,7.40
2012,07,08,07,41,7.40
2012,07,08,07,42,7.40
2012,07,08,07,43,7.40
2012,07,08,07,44,7.40
2012,07,08,07,45,7.40
2012,07,08,07,46,7.40
2012,07,08,07,47,7.40
2012,07,08,07,48,7.40
2012,07,08,07,49,7.40
2012,07,08,07,50,7.40
2012,07,08,07,51,7.50
2012,07,08,07,52,7.50
2012,07,08,07,53,7.60
2012,07,08,07,54,7.60
2012,07,08,07,55,7.70
2012,07,08,07,56,7.80
2012,07,08,07,57,7.80
2012,07,08,07,58,7.90
2012,07,08,07,59,8.10
2012,07,08,08,00,8.20
2012,07,08,08,01,8.30
2012,07,08,08,02,8.40
2012,07,08,08,03,8.50
2012,07,08,08,04,8.60
2012,07,08,08,05,8.70
2012,07,08,08,06,8.80
2012,07,08,08,07,8.90
2012,07,08,08,08,9.00
2012,07,08,08,09,9.10
2012,07,08,08,10,9.20
2012,07,08,08,11,9.30
2012,07,08,08,12,9.40
2012,07,08,08,13,9.50
2012,07,08,08,14,9.60
2012,07,08,08,15,9.70
2012,07,08,08,16,9.70
2012,07,08,08,17,9.70
2012,07,08,08,18,9.80
2012,07,08,08,19,9.80
2012,07,08,08,20,9.90
2012,07,08,08,21,10.00
2012,07,08,08,22,10.10
2012,07,08,08,23,10.10
2012,07,08,08,24,10.20
2012,07,08,08,25,10.30
2012,07,08,08,26,10.40
2012,07,08,08,27,10.50
2012,07,08,08,28,10.50
2012,07,08,08,29,10.60
2012,07,08,08,30,10.70
2012,07,08,08,31,10.80
2012,07,08,08,32,10.80
2012,07,08,08,33,10.90
2012,07,08,08,34,11.00
2012,07,08,08,35,11.00
2012,07,08,08,36,11.10
2012,07,08,08,37,11.20
2012,07,08,08,38,11.20
2012,07,08,08,39,11.30
2012,07,08,08,40,11.40
2012,07,08,08,41,11.50
2012,07,08,08,42,11.50
2012,07,08,08,43,11.60
2012,07,08,08,44,11.60
2012,07,08,08,45,11.70
2012,07,08,08,46,11.70
2012,07,08,08,47,11.80
2012,07,08,08,48,11.80
2012,07,08,08,49,11.80
2012,07,08,08,50,11.80
2012,07,08,08,51,11.90
2012,07,08,08,52,11.90
2012,07,08,08,53,12.00
2012,07,08,08,54,12.10
2012,07,08,08,55,12.20
2012,07,08,08,56,12.30
2012,07,08,08,57,12.40
2012,07,08,08,58,12.50
2012,07,08,08,59,12.60
2012,07,08,09,00,12.60
2012,07,08,09,01,12.70
2012,07,08,09,02,12.70
2012,07,08,09,03,12.80
2012,07,08,09,04,12.90
2012,07,08,09,05,13.00
2012,07,08,09,06,13.00
2012,07,08,09,07,13.10
2012,07,08,09,08,13.20
2012,07,08,09,09,13.30
2012,07,08,09,10,13.30
2012,07,08,09,11,13.30
2012,07,08,09,12,13.40
2012,07,08,09,13,13.40
2012,07,08,09,14,13.50
2012,07,08,09,15,13.50
2012,07,08,09,16,13.50
2012,07,08,09,17,13.60
2012,07,08,09,18,13.70
2012,07,08,09,19,13.80
2012,07,08,09,20,13.80
2012,07,08,09,21,13.90
2012,07,08,09,22,14.00
2012,07,08,09,23,14.10
2012,07,08,09,24,14.20
2012,07,08,09,25,14.30
2012,07,08,09,26,14.40
2012,07,08,09,27,14.50
2012,07,08,09,28,14.60
2012,07,08,09,29,14.70
2012,07,08,09,30,14.80
2012,07,08,09,31,14.90
2012,07,08,09,32,14.90
2012,07,08,09,33,14.90
2012,07,08,09,34,15.00
2012,07,08,09,35,15.10
2012,07,08,09,36,15.10
2012,07,08,09,37,15.20
2012,07,08,09,38,15.30
2012,07,08,09,39,15.40
2012,07,08,09,40,15.40
2012,07,08,09,41,15.50
2012,07,08,09,42,15.60
2012,07,08,09,43,15.60
2012,07,08,09,44,15.60
2012,07,08,09,45,15.60
2012,07,08,09,46,15.60
2012,07,08,09,47,15.60
2012,07,08,09,48,15.70
2012,07,08,09,49,15.80
2012,07,08,09,50,15.80
2012,07,08,09,51,15.90
2012,07,08,09,52,16.00
2012,07,08,09,53,16.00
2012,07,08,09,54,16.10
2012,07,08,09,55,16.10
2012,07,08,09,56,16.10
2012,07,08,09,57,16.20
2012,07,08,09,58,16.20
2012,07,08,09,59,16.30
2012,07,08,10,00,16.30
2012,07,08,10,01,16.40
2012,07,08,10,02,16.40
2012,07,08,10,03,16.40
2012,07,08,10,04,16.40
2012,07,08,10,05,16.50
2012,07,08,10,06,16.60
2012,07,08,10,07,16.70
2012,07,08,10,08,16.70
2012,07,08,10,09,16.80
2012,07,08,10,10,16.80
2012,07,08,10,11,16.70
2012,07,08,10,12,16.60
2012,07,08,10,13,16.50
2012,07,08,10,14,16.40
2012,07,08,10,15,16.40
2012,07,08,10,16,16.30
2012,07,08,10,17,16.20
2012,07,08,10,18,16.20
2012,07,08,10,19,16.10
2012,07,08,10,20,16.00
2012,07,08,10,21,16.00
2012,07,08,10,22,15.90
2012,07,08,10,23,15.80
2012,07,08,10,24,15.80
2012,07,08,10,25,15.70
2012,07,08,10,26,15.70
2012,07,08,10,27,15.60
2012,07,08,10,28,15.60
2012,07,08,10,29,15.50
2012,07,08,10,30,15.50
2012,07,08,10,31,15.40
2012,07,08,10,32,15.40
2012,07,08,10,33,15.30
2012,07,08,10,34,15.30
2012,07,08,10,35,15.20
2012,07,08,10,36,15.00
2012,07,08,10,37,14.90
2012,07,08,10,38,14.80
2012,07,08,10,39,14.80
2012,07,08,10,40,14.80
2012,07,08,10,41,14.80
2012,07,08,10,42,14.80
2012,07,08,10,43,14.80
2012,07,08,10,44,14.80
2012,07,08,10,45,14.90
2012,07,08,10,46,14.90
2012,07,08,10,47,14.90
2012,07,08,10,48,15.00
2012,07,08,10,49,15.00
2012,07,08,10,50,15.10
2012,07,08,10,51,15.20
2012,07,08,10,52,15.20
2012,07,08,10,53,15.20
2012,07,08,10,54,15.30
2012,07,08,10,55,15.30
2012,07,08,10,56,15.30
2012,07,08,10,57,15.40
2012,07,08,10,58,15.40
2012,07,08,10,59,15.40
2012,07,08,11,00,15.40
2012,07,08,11,01,15.50
2012,07,08,11,02,15.50
2012,07,08,11,03,15.50
2012,07,08,11,04,15.50
2012,07,08,11,05,15.60
2012,07,08,11,06,15.60
2012,07,08,11,07,15.70
2012,07,08,11,08,15.90
2012,07,08,11,09,16.00
2012,07,08,11,10,16.20
2012,07,08,11,11,16.40
2012,07,08,11,12,16.50
2012,07,08,11,13,16.60
2012,07,08,11,14,16.70
2012,07,08,11,15,16.80
2012,07,08,11,16,16.90
2012,07,08,11,17,17.00
2012,07,08,11,18,17.00
2012,07,08,11,19,17.10
2012,07,08,11,20,17.10
2012,07,08,11,21,17.10
2012,07,08,11,22,17.10
2012,07,08,11,23,17.10
2012,07,08,11,24,17.00
2012,07,08,11,25,17.00
2012,07,08,11,26,16.90
2012,07,08,11,27,16.90
2012,07,08,11,28,16.90
2012,07,08,11,29,16.90
2012,07,08,11,30,16.90
2012,07,08,11,31,16.90
2012,07,08,11,32,17.00
2012,07,08,11,33,17.00
2012,07,08,11,34,17.00
2012,07,08,11,35,17.10
2012,07,08,11,36,17.20
2012,07,08,11,37,17.20
2012,07,08,11,38,17.30
2012,07,08,11,39,17.40
2012,07,08,11,40,17.40
2012,07,08,11,41,17.40
2012,07,08,11,42,17.40
2012,07,08,11,43,17.50
2012,07,08,11,44,17.50
2012,07,08,11,45,17.50
2012,07,08,11,46,17.40
2012,07,08,11,47,17.40
2012,07,08,11,48,17.40
2012,07,08,11,49,17.50
2012,07,08,11,50,17.50
2012,07,08,11,51,17.60
2012,07,08,11,52,17.60
2012,07,08,11,53,17.70
2012,07,08,11,54,17.80
2012,07,08,11,55,17.90
2012,07,08,11,56,18.00
2012,07,08,11,57,18.10
2012,07,08,11,58,18.10
2012,07,08,11,59,18.10
2012,07,08,12,00,18.10
2012,07,08,12,01,18.10
2012,07,08,12,02,18.20
2012,07,08,12,03,18.20
2012,07,08,12,04,18.30
2012,07,08,12,05,18.30
2012,07,08,12,06,18.40
2012,07,08,12,07,18.40
2012,07,08,12,08,18.40
2012,07,08,12,09,18.40
2012,07,08,12,10,18.40
2012,07,08,12,11,18.40
2012,07,08,12,12,18.40
2012,07,08,12,13,18.40
2012,07,08,12,14,18.50
2012,07,08,12,15,18.50
2012,07,08,12,16,18.60
2012,07,08,12,17,18.60
2012,07,08,12,18,18.70
2012,07,08,12,19,18.70
2012,07,08,12,20,18.80
2012,07,08,12,21,18.80
2012,07,08,12,22,18.90
2012,07,08,12,23,18.90
2012,07,08,12,24,18.90
2012,07,08,12,25,18.90
2012,07,08,12,26,18.90
2012,07,08,12,27,18.90
2012,07,08,12,28,18.80
2012,07,08,12,29,18.80
2012,07,08,12,30,18.80
2012,07,08,12,31,18.80
2012,07,08,12,32,18.80
2012,07,08,12,33,18.80
2012,07,08,12,34,18.80
2012,07,08,12,35,18.90
2012,07,08,12,36,18.90
2012,07,08,12,37,19.00
2012,07,08,12,38,19.00
2012,07,08,12,39,19.10
2012,07,08,12,40,19.10
2012,07,08,12,41,19.20
2012,07,08,12,42,19.20
2012,07,08,12,43,19.20
2012,07,08,12,44,19.30
2012,07,08,12,45,19.30
2012,07,08,12,46,19.30
2012,07,08,12,47,19.30
2012,07,08,12,48,19.30
2012,07,08,12,49,19.30
2012,07,08,12,50,19.30
2012,07,08,12,51,19.20
2012,07,08,12,52,19.20
2012,07,08,12,53,19.20
2012,07,08,12,54,19.20
2012,07,08,12,55,19.20
2012,07,08,12,56,19.30
2012,07,08,12,57,19.30
2012,07,08,12,58,19.40
2012,07,08,12,59,19.40
2012,07,08,13,00,19.40
2012,07,08,13,01,19.30
2012,07,08,13,02,19.30
2012,07,08,13,03,19.30
2012,07,08,13,04,19.30
2012,07,08,13,05,19.30
2012,07,08,13,06,19.30
2012,07,08,13,07,19.40
2012,07,08,13,08,19.40
2012,07,08,13,09,19.40
2012,07,08,13,10,19.40
2012,07,08,13,11,19.40
2012,07,08,13,12,19.40
2012,07,08,13,13,19.40
2012,07,08,13,14,19.50
2012,07,08,13,15,19.50
2012,07,08,13,16,19.60
2012,07,08,13,17,19.60
2012,07,08,13,18,19.60
2012,07,08,13,19,19.70
2012,07,08,13,20,19.70
2012,07,08,13,21,19.80
2012,07,08,13,22,19.80
2012,07,08,13,23,19.70
2012,07,08,13,24,19.60
2012,07,08,13,25,19.50
2012,07,08,13,26,19.40
2012,07,08,13,27,19.30
2012,07,08,13,28,19.30
2012,07,08,13,29,19.30
2012,07,08,13,30,19.30
2012,07,08,13,31,19.30
2012,07,08,13,32,19.30
2012,07,08,13,33,19.40
2012,07,08,13,34,19.40
2012,07,08,13,35,19.50
2012,07,08,13,36,19.50
2012,07,08,13,37,19.60
2012,07,08,13,38,19.60
2012,07,08,13,39,19.70
2012,07,08,13,40,19.70
2012,07,08,13,41,19.70
2012,07,08,13,42,19.60
2012,07,08,13,43,19.60
2012,07,08,13,44,19.70
2012,07,08,13,45,19.70
2012,07,08,13,46,19.80
2012,07,08,13,47,19.80
2012,07,08,13,48,19.70
2012,07,08,13,49,19.70
2012,07,08,13,50,19.70
2012,07,08,13,51,19.70
2012,07,08,13,52,19.70
2012,07,08,13,53,19.70
2012,07,08,13,54,19.70
2012,07,08,13,55,19.70
2012,07,08,13,56,19.70
2012,07,08,13,57,19.70
2012,07,08,13,58,19.80
2012,07,08,13,59,19.80
2012,07,08,14,00,19.80
2012,07,08,14,01,19.90
2012,07,08,14,02,19.90
2012,07,08,14,03,20.00
2012,07,08,14,04,20.00
2012,07,08,14,05,20.10
2012,07,08,14,06,20.10
2012,07,08,14,07,20.10
2012,07,08,14,08,20.10
2012,07,08,14,09,20.20
2012,07,08,14,10,20.10
2012,07,08,14,11,20.10
2012,07,08,14,12,20.10
2012,07,08,14,13,20.10
2012,07,08,14,14,20.10
2012,07,08,14,15,20.10
2012,07,08,14,16,20.10
2012,07,08,14,17,20.10
2012,07,08,14,18,20.10
2012,07,08,14,19,20.10
2012,07,08,14,20,20.10
2012,07,08,14,21,20.10
2012,07,08,14,22,20.10
2012,07,08,14,23,20.10
2012,07,08,14,24,20.10
2012,07,08,14,25,20.10
2012,07,08,14,26,20.20
2012,07,08,14,27,20.20
2012,07,08,14,28,20.30
2012,07,08,14,29,20.30
2012,07,08,14,30,20.30
2012,07,08,14,31,20.30
2012,07,08,14,32,20.20
2012,07,08,14,33,20.20
2012,07,08,14,34,20.20
2012,07,08,14,35,20.30
2012,07,08,14,36,20.30
2012,07,08,14,37,20.40
2012,07,08,14,38,20.40
2012,07,08,14,39,20.50
2012,07,08,14,40,20.50
2012,07,08,14,41,20.60
2012,07,08,14,42,20.60
2012,07,08,14,43,20.60
2012,07,08,14,44,20.70
2012,07,08,14,45,20.70
2012,07,08,14,46,20.70
2012,07,08,14,47,20.70
2012,07,08,14,48,20.70
2012,07,08,14,49,20.70
2012,07,08,14,50,20.70
2012,07,08,14,51,20.70
2012,07,08,14,52,20.70
2012,07,08,14,53,20.70
2012,07,08,14,54,20.70
2012,07,08,14,55,20.70
2012,07,08,14,56,20.80
2012,07,08,14,57,20.80
2012,07,08,14,58,20.90
2012,07,08,14,59,21.00
2012,07,08,15,00,21.00
2012,07,08,15,01,21.00
2012,07,08,15,02,21.00
2012,07,08,15,03,20.90
2012,07,08,15,04,20.90
2012,07,08,15,05,20.80
2012,07,08,15,06,20.80
2012,07,08,15,07,20.80
2012,07,08,15,08,20.80
2012,07,08,15,09,20.80
2012,07,08,15,10,20.80
2012,07,08,15,11,20.80
2012,07,08,15,12,20.80
2012,07,08,15,13,20.80
2012,07,08,15,14,20.80
2012,07,08,15,15,20.90
2012,07,08,15,16,20.90
2012,07,08,15,17,20.90
2012,07,08,15,18,21.00
2012,07,08,15,19,21.00
2012,07,08,15,20,21.10
2012,07,08,15,21,21.10
2012,07,08,15,22,21.10
2012,07,08,15,23,21.10
2012,07,08,15,24,21.10
2012,07,08,15,25,21.20
2012,07,08,15,26,21.20
2012,07,08,15,27,21.20
2012,07,08,15,28,21.20
2012,07,08,15,29,21.10
2012,07,08,15,30,21.10
2012,07,08,15,31,21.10
2012,07,08,15,32,21.10
2012,07,08,15,33,21.10
2012,07,08,15,34,21.10
2012,07,08,15,35,21.10
2012,07,08,15,36,21.00
2012,07,08,15,37,21.00
2012,07,08,15,38,21.00
2012,07,08,15,39,21.10
2012,07,08,15,40,21.10
2012,07,08,15,41,21.10
2012,07,08,15,42,21.20
2012,07,08,15,43,21.20
2012,07,08,15,44,21.30
2012,07,08,15,45,21.30
2012,07,08,15,46,21.30
2012,07,08,15,47,21.30
2012,07,08,15,48,21.30
2012,07,08,15,49,21.40
2012,07,08,15,50,21.40
2012,07,08,15,51,21.50
2012,07,08,15,52,21.60
2012,07,08,15,53,21.60
2012,07,08,15,54,21.50
2012,07,08,15,55,21.50
2012,07,08,15,56,21.40
2012,07,08,15,57,21.40
2012,07,08,15,58,21.50
2012,07,08,15,59,21.50
2012,07,08,16,00,21.60
2012,07,08,16,01,21.60
2012,07,08,16,02,21.60
2012,07,08,16,03,21.60
2012,07,08,16,04,21.60
2012,07,08,16,05,21.60
2012,07,08,16,06,21.60
2012,07,08,16,07,21.60
2012,07,08,16,08,21.60
2012,07,08,16,09,21.60
2012,07,08,16,10,21.60
2012,07,08,16,11,21.60
2012,07,08,16,12,21.60
2012,07,08,16,13,21.70
2012,07,08,16,14,21.70
2012,07,08,16,15,21.80
2012,07,08,16,16,21.80
2012,07,08,16,17,21.70
2012,07,08,16,18,21.70
2012,07,08,16,19,21.60
2012,07,08,16,20,21.50
2012,07,08,16,21,21.40
2012,07,08,16,22,21.30
2012,07,08,16,23,21.10
2012,07,08,16,24,21.00
2012,07,08,16,25,20.90
2012,07,08,16,26,20.90
2012,07,08,16,27,20.80
2012,07,08,16,28,20.80
2012,07,08,16,29,20.70
2012,07,08,16,30,20.60
2012,07,08,16,31,20.60
2012,07,08,16,32,20.50
2012,07,08,16,33,20.50
2012,07,08,16,34,20.50
2012,07,08,16,35,20.50
2012,07,08,16,36,20.60
2012,07,08,16,37,20.60
2012,07,08,16,38,20.60
2012,07,08,16,39,20.70
2012,07,08,16,40,20.80
2012,07,08,16,41,20.80
2012,07,08,16,42,20.90
2012,07,08,16,43,21.00
2012,07,08,16,44,21.00
2012,07,08,16,45,21.10
2012,07,08,16,46,21.20
2012,07,08,16,47,21.20
2012,07,08,16,48,21.30
2012,07,08,16,49,21.30
2012,07,08,16,50,21.30
2012,07,08,16,51,21.30
2012,07,08,16,52,21.20
2012,07,08,16,53,21.20
2012,07,08,16,54,21.10
2012,07,08,16,55,21.10
2012,07,08,16,56,21.00
2012,07,08,16,57,21.00
2012,07,08,16,58,21.00
2012,07,08,16,59,20.90
2012,07,08,17,00,20.90
2012,07,08,17,01,20.90
2012,07,08,17,02,20.90
2012,07,08,17,03,20.80
2012,07,08,17,04,20.80
2012,07,08,17,05,20.80
2012,07,08,17,06,20.80
2012,07,08,17,07,20.80
2012,07,08,17,08,20.80
2012,07,08,17,09,20.80
2012,07,08,17,10,20.80
2012,07,08,17,11,20.80
2012,07,08,17,12,20.80
2012,07,08,17,13,20.80
2012,07,08,17,14,20.90
2012,07,08,17,15,20.90
2012,07,08,17,16,20.90
2012,07,08,17,17,20.90
2012,07,08,17,18,20.90
2012,07,08,17,19,20.90
2012,07,08,17,20,20.90
2012,07,08,17,21,20.80
2012,07,08,17,22,20.80
2012,07,08,17,23,20.70
2012,07,08,17,24,20.70
2012,07,08,17,25,20.70
2012,07,08,17,26,20.60
2012,07,08,17,27,20.60
2012,07,08,17,28,20.60
2012,07,08,17,29,20.60
2012,07,08,17,30,20.60
2012,07,08,17,31,20.50
2012,07,08,17,32,20.50
2012,07,08,17,33,20.50